Current Weather Conditions: station 62160

sailwx.info

Wind from 320

Wave height 1.7 meters (5 feet), 5 second period

Air temperature 16.1° C
Dewpoint 4.8° C

Last reported at 2019-Sep-18 11:00 UTC.
Time now 2019-Sep-18 12:03 UTC

Location: N 56°36' E 002°18'.
View on Google Maps.

See reports from other nearby stations

  
Tides and Currents Weather Stations Pressure Air Temp Water Temp Dewpoint Dewpoint Depression Visibility Wind Speed Wind Dir Waves Ship Positions
date/time (UTC)wind fromknots sea level pressurealtimeterstation pressurevisibilityair tempwater tempwave heightnotes
2019-Sep-18 11:00 320 16.1 1.7
2019-Sep-18 10:00 320 16.6 1.6
2019-Sep-18 09:00 340 14.3 1.7
2019-Sep-18 08:00 350 13.5 1.8
2019-Sep-18 07:00 340 12.2 1.9
2019-Sep-18 06:00 340 12.1 2.0
2019-Sep-18 05:00 350 11.2 2.0
2019-Sep-18 04:00 320 11.5 2.1
2019-Sep-18 03:00 340 11.5 2.1
2019-Sep-18 02:00 310 12.2 2.2
2019-Sep-18 01:00 320 11.8 2.1
2019-Sep-18 00:00 310 12.5 2.3
2019-Sep-17 23:00 350 12.0 2.2
2019-Sep-17 22:00 340 12.0 2.4
2019-Sep-17 21:00 330 12.3 2.7
2019-Sep-17 20:00 340 12.8 2.8
2019-Sep-17 19:00 340 12.9 3.1
2019-Sep-17 18:00 340 13.0 3.1
2019-Sep-17 17:00 340 13.4 3.4
2019-Sep-17 16:00 330 13.8 3.4
2019-Sep-17 15:00 340 13.7 3.5
2019-Sep-17 14:00 330 13.8 3.8
2019-Sep-17 13:00 330 14.2 3.8
2019-Sep-17 12:00 320 14.0 3.7
2019-Sep-17 11:00 310 13.4 3.8
2019-Sep-17 10:00 300 12.4 4.2
2019-Sep-17 09:00 310 13.3 3.8
2019-Sep-17 08:00 310 12.7 3.8
2019-Sep-17 07:00 300 11.8 3.5
2019-Sep-17 06:00 280 11.2 3.6
2019-Sep-17 05:00 280 11.3 3.3
2019-Sep-17 04:00 280 11.5 3.2
2019-Sep-17 03:00 290 12.0 3.1
2019-Sep-17 02:00 290 12.1 2.7
2019-Sep-17 01:00 280 12.2 2.7
2019-Sep-17 00:00 280 12.5 2.5
2019-Sep-16 23:00 280 12.6 2.3
2019-Sep-16 22:00 280 12.6 2.4
2019-Sep-16 21:00 280 12.6 2.3
2019-Sep-16 20:00 280 13.7 2.2
2019-Sep-16 19:00 270 13.8 2.2
2019-Sep-16 18:00 270 13.4 2.3
2019-Sep-16 17:00 270 13.5 2.4
2019-Sep-16 16:00 280 13.9 2.3
2019-Sep-16 15:00 260 13.7 2.2
2019-Sep-16 14:00 260 13.6 2.0
2019-Sep-16 13:00 270 14.3 2.1
2019-Sep-16 12:00 260 13.7 1.9